• MPC Preparation (Info)

  • MPEC 2014-O67 : 2014 ON207

    The following Minor Planet Electronic Circular may be linked-to from your own Web pages, but must not otherwise be redistributed electronically.

    A form allowing access to any MPEC is at the bottom of this page.


    Read MPEC 2014-O66 Read MPEC 2014-O68


    M.P.E.C. 2014-O67                                Issued 2014 July 30, 20:55 UT
    
         The Minor Planet Electronic Circulars contain information on unusual
             minor planets and routine data on comets.  They are published
       on behalf of Commission 20 of the International Astronomical Union by the
              Minor Planet Center, Smithsonian Astrophysical Observatory,
                              Cambridge, MA 02138, U.S.A.
    
                 Prepared using the Tamkin Foundation Computer Network
    
                                  MPC@CFA.HARVARD.EDU
                URL https://www.minorplanetcenter.net/    ISSN 1523-6714
    
                                      2014 ON207
    
    Observations:
         K14OK7N* C2014 07 28.36652 19 58 53.259-27 57 37.59         20.7 wLEO067F51
         K14OK7N  C2014 07 28.37718 19 58 55.008-27 57 54.14         20.9 wLEO067F51
         K14OK7N  C2014 07 28.38788 19 58 56.743-27 58 10.32         20.6 wLEO067F51
         K14OK7N  C2014 07 28.39855 19 58 58.476-27 58 26.52         20.8 wLEO067F51
         K14OK7N _C2014 07 29.46521120 02 10.693-28 24 22.88         20.5 RtEO067568
         K14OK7N _C2014 07 29.46646420 02 10.899-28 24 24.60         20.5 RtEO067568
         K14OK7N  C2014 07 30.42845 20 05 05.175-28 46 48.07         20.9 wLEO067F51
         K14OK7N  C2014 07 30.43987 20 05 07.005-28 47 03.46         20.9 wLEO067F51
         K14OK7N  C2014 07 30.45129 20 05 08.845-28 47 18.80         20.8 wLEO067F51
         K14OK7N  C2014 07 30.46269 20 05 10.685-28 47 34.17         20.9 wLEO067F51
    
    Observer details:
    568 Mauna Kea.  Observers R. J. Wainscoat, L. Wells.  Measurers M. Micheli,
        R. J. Wainscoat.  3.6-m Canada-France-Hawaii Telescope + CCD.
    F51 Pan-STARRS 1, Haleakala.  Observers N. Primak, A. Schultz, T. Goggia,
        M. Willman.  1.8-m Ritchey-Chretien + CCD.
    
    Orbital elements:
    2014 ON207                                               Earth MOID = 0.1838 AU
    Epoch 2014 May 23.0 TT = JDT 2456800.5                  MPC
    M 344.91934              (2000.0)            P               Q
    n   0.29488638     Peri.  176.81784     +0.34127539     +0.93427508
    a   2.2354566      Node   113.11708     -0.86485952     +0.35513280
    e   0.4629135      Incl.    6.44605     -0.36816995     +0.03179269
    P   3.34           H   23.1           G   0.15           U   7
    Residuals in seconds of arc
    140728 F51  0.0   0.2+    140729 568  0.0   0.0     140730 F51  0.0   0.0
    140728 F51  0.1+  0.1-    140729 568  0.0   0.0     140730 F51  0.1+  0.2-
    140728 F51  0.0   0.0     140730 F51  0.0   0.1+
    140728 F51  0.0   0.0     140730 F51  0.0   0.1+
    
    Ephemeris:
    2014 ON207               a,e,i = 2.24, 0.46, 6                   q = 1.2006
    Date    TT    R. A. (2000) Decl.     Delta      r     Elong.  Phase     V
    2014 06 30    18 37 33.5 -12 44 21   0.1949  1.2088   169.5     8.8    20.6
    ...
    2014 07 15    19 18 05.9 -21 08 00   0.1848  1.2008   175.8     3.6    20.2
    ...
    2014 07 23    19 42 26.6 -25 29 05   0.1908  1.2052   172.0     6.7    20.4
    ...
    2014 07 29    20 00 47.3 -28 12 40   0.2006  1.2125   168.2     9.8    20.7
    2014 07 30    20 03 48.1 -28 36 24   0.2026  1.2140   167.6    10.3    20.7
    2014 07 31    20 06 47.8 -28 59 03   0.2048  1.2156   167.0    10.8    20.8
    ...
    2014 08 06    20 24 14.3 -30 51 42   0.2204  1.2271   163.4    13.6    21.0
    ...
    2014 08 14    20 45 34.1 -32 21 23   0.2474  1.2472   159.1    16.8    21.4
    ...
    2014 08 29    21 18 36.1 -32 36 14   0.3168  1.2979   151.8    21.6    22.2
    
    A. U. Tomatic                (C) Copyright 2014 MPC           M.P.E.C. 2014-O67
    

    Read MPEC 2014-O66 Read MPEC 2014-O68


    MPEC number:

    Enter an MPEC number in one of the following forms:

    • 1997-B01 (the full form)
    • J97B01 (the packed version of the full form)
    • B01 (the abbreviated form)